This is the latest recevied weather packets stored in our database for station/object K7NDG. If no packets are shown the sender has not sent any weather packets the latest 1 day(s).
| Time | Temp. | Humidity | Pressure | Rain* | Wind** | Luminosity | Snow |
|---|---|---|---|---|---|---|---|
| 1777998578 | 14.44° C | 80% | 1016.8 hPa | 0 mm | 0 m/s | 51 W/m² | - |
| 1777998273 | 14.44° C | 80% | 1016.5 hPa | 0 mm | 0 m/s | 56 W/m² | - |
| 1777997970 | 13.89° C | 80% | 1016.5 hPa | 0 mm | 0 m/s | 60 W/m² | - |
| 1777997667 | 13.89° C | 80% | 1016.6 hPa | 0 mm | 0 m/s | 67 W/m² | - |
| 1777997364 | 13.89° C | 81% | 1016.6 hPa | 0 mm | 0 m/s | 83 W/m² | - |
| 1777997062 | 13.89° C | 81% | 1016.6 hPa | 0 mm | 0 m/s | 88 W/m² | - |
| 1777996759 | 13.89° C | 80% | 1016.5 hPa | 0 mm | 0 m/s | 79 W/m² | - |
| 1777996455 | 13.89° C | 81% | 1016.7 hPa | 0 mm | 0.89 m/s, 278° | 69 W/m² | - |
| 1777996152 | 13.89° C | 81% | 1016.7 hPa | 0 mm | 0.45 m/s, 309° | 65 W/m² | - |
| 1777995848 | 13.89° C | 82% | 1016.7 hPa | 0 mm | 1.34 m/s, 285° | 65 W/m² | - |
| 1777995544 | 13.33° C | 82% | 1016.4 hPa | 0 mm | 0 m/s | 62 W/m² | - |
| 1777995241 | 13.33° C | 82% | 1016.6 hPa | 0 mm | 0 m/s | 59 W/m² | - |
| 1777994938 | 13.33° C | 82% | 1016.4 hPa | 0 mm | 1.34 m/s, 282° | 55 W/m² | - |
| 1777994630 | 13.33° C | 82% | 1016.3 hPa | 0 mm | 0 m/s | 48 W/m² | - |
| 1777994329 | 13.33° C | 83% | 1016.3 hPa | 0 mm | 0 m/s | 45 W/m² | - |
| 1777994026 | 13.33° C | 83% | 1016.3 hPa | 0 mm | 0 m/s | 42 W/m² | - |
| 1777993723 | 13.33° C | 83% | 1016.3 hPa | 0 mm | 0.45 m/s, 267° | 40 W/m² | - |
| 1777993421 | 13.33° C | 83% | 1016.2 hPa | 0 mm | 0 m/s | 38 W/m² | - |
| 1777993115 | 13.33° C | 83% | 1016.1 hPa | 0 mm | 0 m/s | 37 W/m² | - |
| 1777992813 | 13.33° C | 83% | 1015.9 hPa | 0 mm | 0 m/s | 34 W/m² | - |
| 1777992510 | 12.78° C | 83% | 1015.9 hPa | 0 mm | 0.45 m/s, 274° | 32 W/m² | - |
| 1777992209 | 12.78° C | 83% | 1015.8 hPa | 0 mm | 0.89 m/s, 262° | 31 W/m² | - |
| 1777991905 | 12.78° C | 83% | 1015.9 hPa | 0 mm | 0.89 m/s, 304° | 31 W/m² | - |
| 1777991603 | 12.78° C | 83% | 1015.7 hPa | 0 mm | 0 m/s | 27 W/m² | - |
| 1777991300 | 12.78° C | 83% | 1016 hPa | 0 mm | 0 m/s | 27 W/m² | - |
* Rain latest hour (hover to see other rain measurements)
** Current wind speed in m/s (hover to see current wind gust speed)